Probability
35 42 35 32 35 35 32 32 32 35 35 35 39 39 35 35 35 35 26 32 29 32 29 29 32 39 23 23 23 19 32 26 26 13 10 16 19 16 10 13 13 13 3
39 39 39 32 26 23 26 32 35 35 32 29 32 39 32 32 32 29 23 19 19 23 23 29 32 35 39 26 29 29 32 35 23 16 19 13 23 23 23 19 10 10 10
29 29 29 29 23 16 23 23 32 29 29 29 29 29 29 29 29 32 26 26 26 26 29 26 32 29 35 35 39 32 26 16 23 23 16 19 13 19 19 23 13 13 10
29 26 26 23 26 19 19 19 26 29 23 26 26 26 26 29 29 26 32 23 23 26 23 19 26 29 32 35 35 39 32 29 26 26 19 19 23 19 26 16 16 16 10
16 19 16 19 13 13 13 16 16 23 26 19 19 23 29 23 23 32 26 16 19 29 23 23 23 23 23 23 23 35 39 32 23 19 19 23 13 26 13 16 13 16 23
16 16 13 19 16 13 13 13 16 16 16 16 16 19 19 16 10 10 19 23 23 19 19 19 19 23 6 0 0 3 3 29 26 23 23 23 26 23 23 16 19 16 13
16 13 16 16 16 16 13 13 13 16 16 16 19 16 16 10 6 0 0 19 23 23 26 26 13 19 19 26 6 0 3 0 0 29 26 29 23 19 23 10 29 16 26
13 13 16 16 13 13 13 13 13 16 16 16 16 19 19 13 6 0 0 6 16 16 16 23 26 29 19 26 26 23 26 10 13 13 23 29 19 19 26 23 29 23 26
13 13 16 16 13 13 13 13 13 13 16 16 13 16 16 13 3 0 0 13 13 16 16 13 23 26 16 3 23 29 32 29 0 0 0 0 0 0 3 16 19 16 16
13 13 13 16 16 13 13 13 13 13 13 16 16 13 16 16 6 0 0 10 13 13 16 16 10 13 10 0 23 26 29 26 23 6 0 0 0 0 0 10 23 19 16
16 16 13 16 16 16 16 13 13 13 13 16 16 16 13 13 6 0 0 13 13 13 10 16 16 0 0 0 3 29 19 13 13 13 19 23 19 19 13 10 19 19 16
13 13 16 19 16 13 16 13 13 13 13 16 16 13 13 13 10 3 0 0 3 13 13 16 10 0 0 0 0 3 3 3 10 10 6 16 13 13 13 16 19 16 16
6 10 10 19 16 13 13 13 13 13 10 13 10 10 10 10 10 0 0 0 0 10 10 10 0 0 0 0 0 0 0 3 6 10 6 6 3 6 10 13 13 16 10
6 6 6 10 13 10 10 10 10 6 10 10 10 6 10 10 6 6 0 0 0 0 3 0 0 0 0 0 0 0 3 3 6 10 6 3 6 6 10 6 6 10 10
6 6 6 10 10 10 10 10 6 6 3 3 6 6 10 6 6 6 6 6 3 3 3 0 3 3 0 0 3 3 6 6 6 6 6 6 10 6 6 6 13 13 13
6 6 10 10 10 10 10 10 0 0 0 0 3 0 3 0 0 3 0 0 0 0 3 6 6 6 6 0 0 3 6 6 6 6 6 6 10 10 3 3 6 6 6
6 6 13 13 6 10 13 6 3 0 0 0 0 0 0 0 0 0 0 0 0 0 3 6 10 6 6 3 0 3 6 6 6 6 6 3 3 3 0 3 3 3 3
10 6 6 10 10 16 10 3 3 3 3 0 0 0 0 0 0 0 0 0 0 0 3 3 6 10 6 6 0 0 3 6 6 6 6 6 3 3 0 0 0 3 0
6 6 10 10 6 10 10 6 3 3 3 0 0 0 0 0 0 0 0 3 3 0 0 6 6 6 6 3 3 3 3 6 6 6 6 6 3 3 3 0 0 0 0
6 0 6 6 6 6 3 3 0 0 0 0 0 0 0 0 0 0 0 3 0 0 3 3 3 3 0 0 0 0 0 3 3 6 6 6 6 3 3 0 0 0 0
3 3 0 3 3 3 3 0 0 0 0 0 0 0 0 0 0 0 0 0 0 0 0 0 3 3 0 0 0 0 0 3 3 3 0 0 0 3 3 0 0 0 0
3 3 3 3 3 3 3 0 0 0 0 0 0 0 0 0 0 0 0 0 0 0 0 0 0 0 0 0 0 0 3 3 3 3 0 0 0 0 0 0 3 3 3
6 3 3 3 3 0 0 0 0 0 0 0 0 0 0 0 0 0 0 0 0 0 0 0 0 0 0 0 0 0 0 0 0 0 0 0 0 0 0 0 0 3 3
6 0 0 0 0 0 0 0 0 0 0 0 0 0 0 0 0 0 0 0 0 0 0 0 0 0 0 0 0 0 0 0 0 0 0 0 0 0 0 0 0 0 3
6 3 0 0 0 0 0 0 0 0 0 0 0 0 0 0 0 0 0 0 0 0 0 0 0 0 0 0 0 0 0 0 0 0 0 0 0 0 0 0 0 0 3
3 0 0 0 0 0 0 0 0 0 0 0 0 0 0 0 0 0 0 0 0 0 0 0 0 0 0 0 0 0 0 0 0 0 0 0 0 0 0 0 0 0 3
Height
5825 5824 5824 5824 5823 5823 5822 5822 5821 5820 5820 5819 5819 5819 5819 5819 5819 5819 5819 5819 5820 5819 5820 5820 5820 5820 5820 5819 5819 5818 5818 5817 5816 5816 5815 5814 5813 5812 5811 5810 5810 5809 5808
5816 5816 5816 5816 5815 5815 5815 5814 5814 5813 5813 5812 5812 5812 5812 5812 5812 5812 5813 5813 5813 5813 5813 5813 5814 5814 5814 5813 5813 5812 5812 5811 5811 5810 5810 5809 5808 5807 5806 5805 5804 5804 5803
5808 5808 5808 5808 5807 5807 5807 5806 5806 5806 5805 5805 5805 5805 5804 5805 5805 5805 5806 5806 5806 5806 5807 5807 5807 5808 5807 5807 5807 5806 5806 5805 5805 5804 5804 5803 5802 5802 5801 5800 5799 5798 5797
5799 5799 5800 5800 5799 5799 5799 5798 5798 5798 5798 5797 5797 5797 5797 5797 5797 5798 5798 5799 5799 5800 5800 5801 5801 5801 5801 5801 5801 5800 5800 5800 5800 5799 5799 5798 5797 5796 5795 5794 5793 5792 5791
5790 5791 5791 5791 5791 5791 5790 5790 5790 5790 5789 5789 5789 5789 5789 5789 5790 5791 5791 5792 5792 5793 5793 5794 5794 5795 5795 5795 5795 5795 5794 5794 5794 5793 5793 5792 5791 5790 5789 5788 5787 5786 5785
5782 5782 5782 5782 5781 5781 5781 5781 5781 5781 5781 5780 5780 5781 5781 5781 5782 5783 5784 5785 5785 5786 5786 5787 5788 5788 5788 5788 5788 5788 5788 5788 5787 5787 5786 5786 5785 5784 5783 5782 5781 5780 5780
5773 5772 5772 5772 5772 5772 5772 5772 5772 5772 5772 5771 5771 5772 5773 5773 5774 5775 5775 5777 5777 5778 5779 5780 5780 5781 5782 5782 5782 5782 5781 5781 5781 5780 5780 5779 5778 5777 5777 5776 5775 5774 5773
5764 5763 5763 5763 5763 5763 5763 5763 5763 5763 5762 5763 5763 5763 5764 5764 5765 5766 5766 5768 5769 5770 5771 5772 5773 5774 5774 5775 5775 5775 5775 5774 5774 5773 5773 5772 5771 5770 5769 5769 5768 5767 5767
5755 5755 5754 5754 5754 5753 5753 5754 5754 5754 5754 5754 5754 5754 5754 5755 5756 5756 5757 5758 5760 5761 5762 5763 5764 5766 5767 5767 5768 5768 5767 5767 5767 5766 5765 5764 5763 5763 5762 5762 5761 5761 5760
5747 5746 5745 5745 5744 5744 5744 5744 5744 5744 5744 5744 5744 5745 5745 5745 5746 5747 5748 5749 5751 5752 5753 5754 5756 5757 5758 5759 5760 5760 5760 5760 5759 5759 5758 5758 5757 5755 5755 5755 5754 5754 5753
5738 5737 5736 5735 5735 5735 5735 5735 5734 5734 5734 5734 5735 5735 5735 5736 5736 5737 5738 5739 5741 5742 5744 5745 5747 5748 5749 5750 5751 5752 5752 5752 5751 5751 5751 5750 5749 5749 5748 5747 5747 5747 5746
5729 5728 5727 5726 5726 5726 5725 5725 5725 5725 5725 5725 5725 5725 5725 5726 5727 5728 5729 5730 5731 5733 5734 5736 5738 5739 5740 5741 5742 5743 5743 5743 5743 5743 5743 5743 5742 5742 5741 5741 5740 5739 5738
5720 5719 5718 5717 5717 5716 5716 5716 5715 5715 5715 5715 5715 5715 5715 5716 5717 5718 5720 5721 5722 5724 5726 5727 5729 5730 5732 5733 5734 5735 5735 5735 5735 5735 5735 5735 5735 5734 5734 5733 5733 5732 5731
5712 5710 5709 5708 5707 5707 5707 5706 5706 5706 5705 5705 5705 5706 5706 5707 5708 5709 5710 5712 5713 5715 5717 5718 5720 5721 5723 5724 5725 5726 5727 5727 5727 5727 5727 5727 5727 5727 5727 5726 5726 5725 5724
5703 5701 5700 5699 5698 5698 5697 5697 5697 5697 5696 5696 5696 5697 5697 5698 5699 5700 5701 5703 5705 5706 5708 5710 5711 5713 5714 5716 5717 5718 5719 5719 5719 5720 5720 5720 5719 5719 5719 5719 5718 5718 5717
5694 5693 5692 5690 5690 5689 5689 5688 5688 5688 5688 5688 5688 5688 5689 5690 5691 5692 5693 5695 5696 5698 5699 5701 5702 5704 5706 5707 5709 5710 5711 5711 5711 5712 5712 5712 5712 5712 5711 5711 5710 5710 5709
5686 5685 5683 5682 5682 5681 5680 5680 5680 5680 5680 5680 5680 5680 5681 5682 5683 5684 5685 5686 5688 5689 5691 5692 5694 5696 5697 5699 5700 5701 5702 5703 5704 5704 5704 5704 5704 5704 5703 5703 5703 5702 5702
5679 5678 5676 5675 5674 5674 5673 5673 5672 5672 5672 5672 5672 5673 5673 5674 5675 5676 5677 5678 5680 5681 5683 5684 5686 5687 5689 5691 5692 5693 5694 5695 5696 5696 5696 5696 5696 5696 5696 5695 5695 5695 5694
5672 5671 5670 5669 5668 5667 5666 5666 5665 5665 5664 5665 5665 5665 5666 5667 5667 5668 5669 5671 5672 5673 5674 5676 5677 5679 5680 5682 5683 5685 5686 5687 5688 5688 5689 5689 5689 5689 5688 5688 5688 5687 5687
5666 5665 5663 5662 5661 5660 5660 5659 5658 5658 5657 5658 5658 5658 5659 5659 5660 5661 5662 5663 5664 5666 5667 5668 5669 5671 5672 5673 5675 5676 5678 5679 5680 5680 5681 5681 5681 5681 5681 5681 5680 5680 5679
5659 5658 5657 5656 5655 5654 5653 5653 5652 5652 5651 5651 5651 5652 5652 5652 5653 5654 5655 5656 5657 5658 5659 5660 5661 5663 5664 5665 5667 5668 5669 5670 5671 5672 5672 5673 5673 5673 5673 5673 5672 5672 5672
5653 5651 5650 5649 5648 5648 5647 5647 5646 5646 5645 5645 5645 5645 5645 5646 5646 5647 5647 5648 5649 5650 5651 5652 5654 5655 5656 5657 5659 5660 5661 5662 5663 5664 5664 5665 5665 5665 5665 5665 5665 5664 5664
5647 5645 5644 5643 5642 5642 5641 5641 5640 5640 5639 5639 5639 5639 5639 5639 5640 5640 5641 5641 5642 5643 5644 5645 5646 5647 5648 5650 5651 5652 5653 5654 5655 5656 5656 5657 5657 5657 5657 5657 5657 5657 5656
5641 5640 5638 5637 5637 5636 5636 5636 5635 5635 5634 5634 5634 5633 5633 5633 5633 5634 5634 5635 5635 5636 5637 5637 5638 5639 5640 5642 5643 5644 5645 5646 5647 5648 5648 5648 5649 5649 5649 5649 5649 5649 5649
5636 5635 5634 5633 5632 5631 5631 5630 5630 5630 5629 5629 5628 5628 5628 5628 5628 5627 5627 5628 5628 5629 5629 5630 5631 5632 5633 5634 5636 5637 5638 5639 5639 5640 5640 5640 5641 5641 5641 5642 5642 5641 5641
5631 5630 5629 5628 5627 5626 5626 5625 5625 5625 5625 5624 5623 5622 5622 5622 5622 5622 5622 5622 5622 5623 5623 5623 5624 5625 5626 5627 5628 5630 5631 5631 5632 5632 5633 5633 5633 5634 5634 5634 5634 5634 5634
Wind_Speed
30 29 29 28 27 27 26 26 26 26 25 25 25 25 23 23 23 23 22 22 22 22 22 21 21 21 21 21 20 20 19 20 20 19 19 19 19 19 19 19 20 20 20
30 30 30 29 28 28 28 28 27 26 26 26 27 26 25 24 24 23 23 23 22 22 21 21 21 21 22 22 21 20 20 20 20 20 20 20 19 19 20 20 21 21 21
31 31 30 30 29 29 30 30 29 28 28 28 27 27 26 26 25 24 24 24 23 23 22 21 21 21 21 21 21 20 20 20 20 20 20 20 21 21 21 21 22 22 22
30 31 31 30 30 30 30 31 31 29 29 28 28 28 28 27 26 25 25 25 25 24 23 22 21 21 20 20 20 20 19 20 20 20 20 21 22 22 22 22 22 22 22
30 30 30 30 30 30 30 31 31 30 30 30 29 28 27 27 27 27 26 26 26 25 24 23 22 21 21 21 21 20 20 21 21 22 22 22 22 22 22 22 23 23 22
30 30 30 31 30 29 29 29 29 30 30 28 28 27 27 26 26 28 28 27 26 26 25 24 23 23 22 22 22 21 22 22 22 23 23 23 23 23 23 23 23 22 22
29 30 30 30 30 29 29 29 29 29 28 28 27 27 28 28 28 28 28 29 28 27 27 25 24 24 23 23 23 23 23 23 23 23 23 24 24 23 23 23 23 22 21
29 30 30 30 30 30 30 30 30 29 29 28 27 28 28 29 30 31 31 30 29 29 28 27 26 25 25 25 24 24 24 24 24 24 24 24 24 24 24 24 23 23 22
28 29 31 31 31 31 30 30 30 29 29 29 29 30 30 29 29 29 30 30 30 30 30 29 28 27 26 25 25 25 25 25 25 25 25 25 25 25 25 24 23 22 22
27 28 29 30 30 30 29 29 30 30 29 29 30 31 31 31 30 30 31 31 30 30 30 30 29 29 28 27 26 26 26 25 25 25 25 25 24 24 24 24 23 23 23
27 27 27 28 29 29 29 29 29 29 29 29 30 31 32 31 30 30 30 30 30 30 30 30 30 30 29 29 28 27 27 26 26 26 26 25 24 23 23 24 24 24 24
27 27 27 27 28 28 28 29 29 28 28 29 29 30 29 30 30 29 29 29 29 30 30 30 30 30 30 29 28 28 28 27 27 26 26 25 24 24 24 24 24 24 25
26 27 27 27 28 29 29 29 28 29 29 29 28 28 29 29 29 29 29 29 29 29 29 30 29 29 29 29 28 27 28 28 28 27 26 25 24 24 24 24 24 24 24
26 27 27 27 28 28 28 28 28 28 28 28 28 28 28 28 28 28 28 28 28 28 29 30 30 30 29 28 27 27 27 27 27 26 26 25 25 24 24 24 24 24 23
27 27 27 27 28 28 27 27 27 27 26 26 25 26 27 27 27 28 28 28 29 29 29 30 30 30 29 28 28 27 27 27 26 26 26 25 25 25 25 25 25 24 23
25 26 26 26 26 26 26 26 25 26 26 25 24 25 25 26 26 27 28 28 29 29 29 29 30 30 29 29 28 28 27 27 27 26 25 25 25 25 25 26 26 25 24
24 24 24 25 24 24 24 25 25 25 24 24 24 23 24 24 25 26 26 27 28 28 27 27 28 29 29 28 28 28 27 27 26 26 26 25 25 25 25 25 25 24 24
22 22 22 22 22 22 22 23 23 24 24 24 23 23 23 24 25 25 25 26 26 26 27 27 28 29 29 29 29 28 27 27 27 26 26 25 25 25 25 24 25 24 23
21 21 21 21 21 21 21 21 22 23 24 23 23 24 24 25 25 25 25 26 26 26 26 26 27 28 28 29 29 29 28 26 26 26 26 25 25 25 24 24 25 24 24
21 21 21 21 21 20 20 20 20 21 21 22 22 22 22 23 23 24 25 26 26 26 26 27 27 28 28 29 29 28 27 27 27 26 26 25 25 25 25 25 25 25 25
21 21 21 20 20 19 20 20 19 20 20 21 21 20 21 21 22 22 23 24 24 25 26 26 27 27 26 26 26 26 26 26 26 26 26 26 26 26 26 26 26 25 25
19 19 19 19 19 19 18 19 18 18 18 19 20 20 20 21 21 22 22 22 23 23 24 24 25 25 24 25 25 26 26 26 26 26 27 26 25 26 25 26 26 25 24
18 18 18 18 18 17 17 17 18 17 16 16 17 18 19 19 20 20 21 21 21 22 22 23 23 23 24 24 24 24 24 25 25 26 27 26 25 25 24 25 25 24 24
17 17 16 16 16 16 17 17 17 16 16 16 16 17 17 18 19 20 21 21 21 21 21 21 22 23 24 24 24 24 24 24 25 25 26 26 26 25 25 24 24 24 24
16 16 16 16 16 16 16 16 15 15 15 15 16 16 16 17 18 18 18 19 20 20 21 21 22 22 22 23 23 23 23 23 23 24 24 24 24 24 23 23 23 23 23
15 15 15 15 15 15 15 14 14 14 14 15 15 16 17 17 17 17 17 18 19 19 19 20 21 21 21 22 22 22 22 22 22 23 23 23 23 22 22 22 22 23 22
Wind_Direction
269 270 270 272 273 271 270 271 271 270 269 266 267 269 269 266 264 265 267 267 268 269 270 272 272 272 273 273 270 272 273 274 273 274 276 278 279 279 278 278 277 275 275
268 268 268 270 270 269 269 270 273 272 268 268 268 268 268 266 264 264 265 265 266 267 269 270 271 271 272 271 270 271 272 273 273 274 275 278 280 280 279 279 279 278 278
268 268 267 268 270 269 270 271 273 272 270 269 269 267 266 264 263 264 264 264 264 265 267 269 269 269 272 270 270 271 271 271 275 276 275 278 280 281 281 281 281 281 282
268 267 267 268 270 270 270 271 271 269 268 268 268 265 264 262 262 262 263 263 262 264 265 267 266 266 269 268 268 270 271 271 272 274 278 280 280 282 282 281 281 282 283
267 267 268 267 268 269 270 271 270 269 269 269 268 265 264 262 262 261 261 261 262 262 262 263 263 264 264 266 267 269 271 271 272 273 276 279 281 283 282 282 281 281 282
267 266 266 266 267 268 270 272 271 270 270 271 265 264 264 263 261 261 260 260 260 259 259 260 262 265 264 264 268 270 273 273 274 275 276 278 281 281 279 281 281 281 281
269 269 267 267 268 269 269 269 269 268 268 268 264 263 262 262 261 262 260 260 259 258 259 259 262 264 263 264 267 271 273 274 274 275 277 277 278 279 279 279 280 281 281
272 270 269 268 269 269 269 267 267 266 266 264 263 263 265 263 261 261 261 259 258 258 258 258 259 261 263 264 266 269 271 274 274 275 278 279 279 278 278 279 279 279 279
274 271 270 271 271 271 269 269 268 266 265 264 264 264 264 263 262 261 260 257 257 257 257 257 258 260 262 262 264 267 270 273 275 275 276 279 280 277 276 277 277 278 280
275 273 272 271 270 270 269 268 268 266 264 265 266 266 265 262 261 262 260 256 255 255 255 256 257 258 260 261 263 266 268 271 273 274 276 277 279 277 275 275 275 276 279
276 274 274 273 270 268 267 267 267 267 267 267 267 265 264 262 261 261 259 256 254 253 252 254 255 256 259 261 262 265 266 268 270 272 274 275 276 277 277 275 275 277 279
277 275 274 273 270 268 267 268 269 269 268 267 266 265 263 262 261 260 259 257 254 253 252 252 253 254 257 260 262 263 264 266 268 271 273 275 275 276 277 277 277 278 279
279 277 275 274 271 269 269 270 270 269 267 266 266 265 262 261 260 259 257 256 253 252 252 251 252 252 254 259 261 263 263 264 267 269 272 273 273 275 276 277 277 278 279
279 278 277 275 272 271 271 271 271 270 268 266 265 263 261 259 258 257 256 255 253 254 253 253 254 254 254 256 258 260 262 264 266 268 270 271 272 273 274 274 276 277 279
281 279 277 275 273 271 271 271 270 269 267 265 265 262 260 257 256 256 255 253 253 255 254 254 254 254 255 255 257 259 262 263 265 267 269 269 270 271 273 274 275 276 277
283 281 279 277 275 272 270 269 268 267 266 265 265 264 260 257 255 255 254 253 253 255 256 255 254 253 254 255 256 258 260 261 263 266 268 269 270 271 272 272 273 274 276
285 284 282 279 276 275 272 269 268 266 266 265 264 263 261 259 256 255 254 253 253 254 255 254 255 255 254 254 255 257 258 261 263 265 266 269 270 271 271 271 272 274 276
287 285 282 279 277 276 274 271 269 266 265 264 263 263 263 262 259 257 255 254 255 256 256 255 255 256 256 255 254 255 257 259 261 263 265 268 269 268 269 270 271 275 274
286 284 282 280 278 276 275 273 271 268 265 264 265 266 265 264 261 259 256 256 257 257 257 256 255 255 255 255 254 255 257 258 260 261 264 266 266 266 266 268 270 273 273
285 283 281 279 280 277 276 276 275 272 268 265 264 264 263 262 261 259 258 257 258 257 257 256 256 256 256 256 256 256 258 259 259 261 264 266 267 265 265 269 271 271 271
285 283 280 280 279 277 276 275 275 274 271 268 267 266 264 263 262 262 260 259 258 257 257 256 257 257 258 257 256 257 258 259 259 261 264 266 266 266 267 270 271 271 271
288 285 281 279 279 277 276 276 275 273 271 269 267 266 265 263 263 263 261 260 259 257 256 257 257 258 257 256 256 257 258 258 259 262 265 267 268 267 268 270 271 270 270
290 288 285 282 280 277 276 276 275 274 273 273 270 267 264 263 263 262 261 261 260 258 256 257 257 255 254 253 254 255 256 257 258 261 265 266 266 266 267 269 270 270 270
290 289 286 281 280 279 277 278 277 274 272 272 273 270 268 267 265 264 262 261 261 258 257 258 257 255 252 251 252 255 256 257 259 263 264 265 265 265 266 267 268 268 270
289 287 284 281 280 279 278 278 276 274 272 273 275 273 270 268 268 266 263 260 259 257 257 257 256 255 252 250 252 254 256 257 260 262 263 264 265 265 265 265 266 269 270
287 286 285 283 281 278 277 275 272 271 272 274 275 273 272 269 267 265 262 259 259 257 257 257 257 254 252 252 252 253 255 257 260 261 262 264 266 266 265 266 267 269 269